This is the latest recevied weather packets stored in our database for station/object KB4MLW-13. If no packets are shown the sender has not sent any weather packets the latest 10 day(s).
| Time | Temp. | Humidity | Pressure | Rain* | Wind** | Luminosity | Snow |
|---|---|---|---|---|---|---|---|
| 1788303958 | 32.78° C | 65% | 1000.3 hPa | 0 mm | - | - | - |
| 1788303898 | 32.78° C | 65% | 1000.5 hPa | 0 mm | - | - | - |
| 1788303808 | 32.78° C | 65% | 1000.4 hPa | 0 mm | - | - | - |
| 1788303718 | 32.78° C | 64% | 1000.3 hPa | 0 mm | - | - | - |
| 1788303628 | 32.78° C | 64% | 1000.4 hPa | 0 mm | - | - | - |
| 1788303538 | 32.78° C | 65% | 1000.4 hPa | 0 mm | - | - | - |
| 1788303449 | 32.78° C | 65% | 1000.3 hPa | 0 mm | - | - | - |
| 1788303358 | 33.33° C | 69% | 1000.4 hPa | 0 mm | - | - | - |
| 1788303298 | 33.33° C | 68% | 1000.4 hPa | 0 mm | - | - | - |
| 1788303238 | 33.33° C | 68% | 1000.3 hPa | 0 mm | - | - | - |
| 1788303178 | 33.89° C | 65% | 1000.4 hPa | 0 mm | - | - | - |
| 1788303089 | 33.89° C | 63% | 1000.3 hPa | 0 mm | - | - | - |
| 1788303028 | 33.89° C | 62% | 1000.4 hPa | 0 mm | - | - | - |
| 1788302968 | 33.89° C | 63% | 1000.3 hPa | 0 mm | - | - | - |
| 1788302908 | 33.89° C | 65% | 1000.5 hPa | 0 mm | - | - | - |
| 1788302848 | 33.89° C | 64% | 1000.1 hPa | 0 mm | - | - | - |
| 1788302759 | 33.89° C | 62% | 1000.3 hPa | 0 mm | - | - | - |
| 1788302698 | 33.89° C | 60% | 1000.4 hPa | 0 mm | - | - | - |
| 1788302638 | 33.89° C | 64% | 1000.5 hPa | 0 mm | - | - | - |
| 1788302578 | 34.44° C | 64% | 1000.3 hPa | 0 mm | - | - | - |
| 1788302518 | 34.44° C | 61% | 1000.3 hPa | 0 mm | - | - | - |
| 1788302429 | 35° C | 63% | 1000.5 hPa | 0 mm | - | - | - |
| 1788302368 | 35° C | 63% | 1000.1 hPa | 0 mm | - | - | - |
| 1788302308 | 35° C | 61% | 1000.6 hPa | 0 mm | - | - | - |
| 1788302248 | 35° C | 61% | 1000.3 hPa | 0 mm | - | - | - |
* Rain latest hour (hover to see other rain measurements)
** Current wind speed in m/s (hover to see current wind gust speed)